Shelby, NC

3:23 AM EDT on July 21, 2017 (GMT -0400)
Shelby Municipal

Weather History for KEHO - May, 2014

Change the Weather History Date:

Monday, May 12, 2014

  Actual Average (KHKY) Record (KHKY)
Temperature  
Mean Temperature 72 °F -  
Max Temperature 86 °F 78 °F 89 °F (1953)
Min Temperature 58 °F 54 °F 38 °F (1952)
Cooling Degree Days 7    
Growing Degree Days 22 (Base 50)    
Moisture  
Dew Point 61 °F    
Average Humidity 68    
Maximum Humidity 97    
Minimum Humidity 39    
Precipitation  
Precipitation 0.00 in - - ()
Sea Level Pressure  
Sea Level Pressure 30.16 in    
Wind  
Wind Speed 2 mph (South)    
Max Wind Speed 9 mph    
Max Gust Speed -    
Visibility 10 miles    
Events      
Averages and records for this station are not official NWS values.
T = Trace of Precipitation, MM = Missing Value Source: NWS Daily Summary

Daily Weather History Graph

Daily Weather History Graph

Search for Another Location

Airport or City:

Trip Planner

Search our weather history database for the weather conditions in past years. The results will help you decide how hot, cold, wet, or windy it might be!

Date:

Astronomy

May. 12, 2014 Rise Set
Actual Time 6:24 AM EDT 8:21 PM EDT
Civil Twilight 5:56 AM EDT 8:49 PM EDT
Nautical Twilight 5:22 AM EDT 9:23 PM EDT
Astronomical Twilight 4:46 AM EDT 9:59 PM EDT
Moon 6:22 PM EDT (5/12) 4:57 AM EDT (5/12)
Length of Visible Light 14h 52m
Length of Day
13h 56m
Waxing Gibbous, 95% of the Moon is Illuminated
May 12
Waxing Gibbous
May 14
Full
May 21
Last Quarter
May 28
New
Jun 5
First Quarter

Hourly Weather History & Observations

Time (EDT) Temp. Heat Index Dew Point Humidity Pressure Visibility Wind Dir Wind Speed Gust Speed Precip Events Conditions
12:15 AM 65.3 °F - 62.2 °F 90% 30.17 in 5.0 mi Calm Calm - N/A   Clear
12:55 AM 64.2 °F - 61.5 °F 91% 30.17 in 10.0 mi Calm Calm - N/A   Clear
1:15 AM 63.7 °F - 61.5 °F 93% 30.16 in 10.0 mi Calm Calm - N/A   Clear
1:55 AM 61.9 °F - 59.9 °F 93% 30.16 in 10.0 mi NW 3.5 mph - N/A   Clear
2:15 AM 61.9 °F - 60.4 °F 95% 30.15 in 10.0 mi Calm Calm - N/A   Clear
2:35 AM 62.6 °F - 60.3 °F 92% 30.15 in 10.0 mi Calm Calm - N/A   Clear
2:55 AM 60.8 °F - 59.5 °F 96% 30.15 in 7.0 mi NNE 3.5 mph - N/A   Clear
3:15 AM 60.1 °F - 59.0 °F 96% 30.15 in 7.0 mi NNE 3.5 mph - N/A   Clear
3:35 AM 60.1 °F - 59.0 °F 96% 30.14 in 7.0 mi NNE 5.8 mph - N/A   Clear
3:55 AM 60.1 °F - 59.0 °F 96% 30.14 in 7.0 mi NNE 4.6 mph - N/A   Clear
4:15 AM 60.1 °F - 59.0 °F 96% 30.14 in 10.0 mi NNE 3.5 mph - N/A   Clear
4:35 AM 60.1 °F - 59.0 °F 96% 30.14 in 10.0 mi Calm Calm - N/A   Clear
4:55 AM 60.1 °F - 59.0 °F 96% 30.14 in 10.0 mi Calm Calm - N/A   Clear
5:15 AM 59.9 °F - 58.5 °F 95% 30.14 in 10.0 mi Calm Calm - N/A   Clear
5:35 AM 60.1 °F - 58.6 °F 95% 30.14 in 10.0 mi Calm Calm - N/A   Clear
5:55 AM 58.3 °F - 57.2 °F 96% 30.15 in 7.0 mi Calm Calm - N/A   Clear
6:15 AM 58.5 °F - 57.6 °F 97% 30.15 in 10.0 mi Calm Calm - N/A   Clear
6:35 AM 58.6 °F - 57.6 °F 96% 30.16 in 7.0 mi NE 3.5 mph - N/A   Clear
6:55 AM 58.5 °F - 57.6 °F 97% 30.17 in 7.0 mi Calm Calm - N/A   Clear
7:15 AM 59.0 °F - 57.9 °F 96% 30.19 in 7.0 mi Calm Calm - N/A   Clear
7:35 AM 60.1 °F - 59.0 °F 96% 30.19 in 7.0 mi Calm Calm - N/A   Clear
7:55 AM 61.9 °F - 60.3 °F 94% 30.20 in 10.0 mi Calm Calm - N/A   Clear
8:15 AM 63.7 °F - 60.8 °F 90% 30.20 in 10.0 mi Calm Calm - N/A   Clear
8:35 AM 66.0 °F - 61.3 °F 85% 30.20 in 10.0 mi Calm Calm - N/A   Clear
8:55 AM 68.9 °F - 62.1 °F 79% 30.20 in 10.0 mi Calm Calm - N/A   Clear
9:15 AM 70.3 °F - 61.5 °F 74% 30.21 in 10.0 mi Calm Calm - N/A   Clear
9:35 AM 72.1 °F - 63.0 °F 73% 30.22 in 10.0 mi Calm Calm - N/A   Clear
10:15 AM 76.1 °F - 64.0 °F 66% 30.23 in 10.0 mi Calm Calm - N/A   Clear
10:35 AM 77.0 °F - 64.0 °F 64% 30.22 in 10.0 mi SSE 4.6 mph - N/A   Clear
10:55 AM 78.1 °F - 64.2 °F 62% 30.22 in 10.0 mi SSE 5.8 mph - N/A   Clear
11:15 AM 79.3 °F - 64.8 °F 61% 30.22 in 10.0 mi SSW 6.9 mph - N/A   Clear
11:35 AM 80.1 °F 81.7 °F 64.0 °F 58% 30.22 in 10.0 mi South 5.8 mph - N/A   Clear
11:55 AM 80.2 °F 81.4 °F 62.2 °F 54% 30.22 in 10.0 mi SSW 8.1 mph - N/A   Clear
12:15 PM 81.0 °F 82.2 °F 63.1 °F 54% 30.21 in 10.0 mi South 3.5 mph - N/A   Clear
12:35 PM 81.7 °F 83.0 °F 63.3 °F 54% 30.21 in 10.0 mi SSW 6.9 mph - N/A   Clear
12:55 PM 82.4 °F 83.2 °F 62.2 °F 50% 30.20 in 10.0 mi SW 5.8 mph - N/A   Clear
1:15 PM 82.9 °F 83.7 °F 61.9 °F 49% 30.20 in 10.0 mi SW 5.8 mph - N/A   Clear
1:35 PM 83.5 °F 83.6 °F 60.1 °F 45% 30.20 in 10.0 mi WSW 4.6 mph - N/A   Clear
1:55 PM 83.1 °F 83.5 °F 61.0 °F 47% 30.19 in 10.0 mi SW 4.6 mph - N/A   Scattered Clouds
2:15 PM 84.2 °F 84.0 °F 59.2 °F 43% 30.18 in 10.0 mi South 6.9 mph - N/A   Scattered Clouds
2:35 PM 84.9 °F 84.2 °F 58.3 °F 40% 30.18 in 10.0 mi SW 3.5 mph - N/A   Clear
2:55 PM 86.2 °F 85.6 °F 59.4 °F 40% 30.17 in 10.0 mi South 6.9 mph - N/A   Scattered Clouds
3:15 PM 85.6 °F 84.8 °F 58.1 °F 39% 30.17 in 10.0 mi West 5.8 mph - N/A   Scattered Clouds
3:35 PM 86.0 °F 85.4 °F 59.2 °F 40% 30.16 in 10.0 mi SSW 5.8 mph - N/A   Clear
3:55 PM 86.2 °F 85.4 °F 58.8 °F 39% 30.15 in 10.0 mi South 8.1 mph - N/A   Clear
4:15 PM 86.5 °F 85.9 °F 59.0 °F 39% 30.14 in 10.0 mi SSE 5.8 mph - N/A   Clear
4:35 PM 86.9 °F 86.3 °F 59.0 °F 39% 30.14 in 10.0 mi South 8.1 mph - N/A   Clear
4:55 PM 86.5 °F 85.9 °F 59.2 °F 39% 30.14 in 10.0 mi SSE 9.2 mph - N/A   Scattered Clouds
5:15 PM 86.2 °F 85.9 °F 59.7 °F 41% 30.13 in 10.0 mi SSE 5.8 mph - N/A   Clear
5:35 PM 86.2 °F 85.4 °F 58.6 °F 39% 30.13 in 10.0 mi South 5.8 mph - N/A   Clear
5:55 PM 85.3 °F 85.0 °F 60.1 °F 42% 30.13 in 10.0 mi South 3.5 mph - N/A   Clear
6:15 PM 85.8 °F 85.9 °F 60.6 °F 43% 30.12 in 10.0 mi South 3.5 mph - N/A   Clear
6:35 PM 85.6 °F 85.2 °F 59.7 °F 41% 30.12 in 10.0 mi SSE 4.6 mph - N/A   Clear
6:55 PM 85.3 °F 85.4 °F 61.0 °F 44% 30.12 in 10.0 mi SSE 3.5 mph - N/A   Clear
7:15 PM 84.7 °F 85.0 °F 61.0 °F 45% 30.12 in 10.0 mi South 3.5 mph - N/A   Clear
7:35 PM 84.0 °F 84.5 °F 61.7 °F 47% 30.12 in 10.0 mi Calm Calm - N/A   Clear
7:55 PM 82.9 °F 83.7 °F 61.7 °F 49% 30.12 in 10.0 mi Calm Calm - N/A   Clear
8:15 PM 82.2 °F 82.9 °F 61.5 °F 49% 30.13 in 10.0 mi Calm Calm - N/A   Clear
8:35 PM 81.5 °F 82.4 °F 61.5 °F 51% 30.13 in 10.0 mi Calm Calm - N/A   Clear
8:55 PM 79.7 °F - 62.2 °F 55% 30.13 in 10.0 mi Calm Calm - N/A   Clear
9:15 PM 78.3 °F - 62.6 °F 58% 30.13 in 10.0 mi Calm Calm - N/A   Clear
9:35 PM 78.6 °F - 62.4 °F 57% 30.13 in 10.0 mi South 3.5 mph - N/A   Clear
9:55 PM 78.4 °F - 62.6 °F 58% 30.14 in 10.0 mi Calm Calm - N/A   Clear
10:15 PM 74.5 °F - 62.8 °F 67% 30.15 in 10.0 mi Calm Calm - N/A   Clear
10:35 PM 74.3 °F - 63.3 °F 68% 30.15 in 10.0 mi Calm Calm - N/A   Clear
10:55 PM 72.9 °F - 63.0 °F 71% 30.15 in 10.0 mi Calm Calm - N/A   Clear
11:15 PM 72.5 °F - 63.9 °F 74% 30.14 in 10.0 mi SE 3.5 mph - N/A   Clear
11:35 PM 72.1 °F - 64.0 °F 76% 30.14 in 10.0 mi Calm Calm - N/A   Clear
11:55 PM 69.1 °F - 63.5 °F 82% 30.14 in 10.0 mi Calm Calm - N/A   Clear